OBJECT B, 67747

Orbit data source: Space-Track

You're viewing an Uncataloged Satellite

Recently launched and/or uncataloged satellites may have evolving metadata. Metadata may include but not limited to: Owner, Maufacturer, Bus, Motor, and Mission.

OBJECT B, 67747 is a Chinese satellite in SSO that was launched on Thu, 12 Feb 2026 UTC via a JIELONG-3 launch vehicle from the South China Sea Launch Area (SCSLA). Unknown objects in Earth's orbit typically refer to objects detected orbiting the Earth but have not yet been identified or cataloged. These objects could be anything from previously untracked satellites, spent rocket stages, debris from satellite collisions, or even natural meteoroids temporarily captured by Earth's gravity.

Loading next visibility...
Identifier
67747, 2026-027B
Orbit
SSO
Country
Flag of CNCN / PRC
Related business
None
Manufacturer
Unknown
Mission
Operational spacecraft
Bus & Motor
Unknown
Mass
Unknown
Launch date (UTC)
2026-02-12 (1 month ago)
Launch vehicle
JIELONG-3
Launch site
South China Sea Launch Area (SCSLA)
Object type
Unknown
Shape & HBR
Unknown
Radar Cross Section
RCS unknown

Expand to show TLE details & history
Last TLE update: 9 hours ago

TLE from 9 hours ago
0 OBJECT B
1 67747U 26027B   26071.93208227  .00009035  00000-0  44844-3 0  9991
2 67747  97.4896 200.9135 0010534 185.3593 174.7529 15.17878308  4358
Epoch: 2026-03-12T22:22Z
TLE epoch observation values (Epoch: 2026-03-12T22:22:11.908Z)
Latitude
-0.00008°
Longitude
54.78901°
Altitude
522.569 km
Speed
7.598 km/s
True Right ascension
13h 23m 39s
True Declination
0° 00' 00"
Sunlit
Object was in full shadow at epoch
Visualization orbit readout
Latitude
Unknown
Longitude
Unknown
Altitude
Unknown
Speed
Unknown
Apparent Right ascension
Unknown
Apparent Declination
Unknown
Sunlit
N/A
Visualization observer readout
Local Sidereal Time
12:12:58
Azimuth
Unknown
Elevation
Unknown
Doppler factor
Unknown
Orbital elements
Apogee altitude
516.481 km
Perigee altitude
501.971 km
Semi-major axis
6,887.363 km
Eccentricity
0.00105
Inclination
97.4896°
RAAN
200.9135°
Arg. of periapsis
185.3593°
True anomaly
174.76392°
Mean anomaly
174.7529°
Eccentric anomaly
174.75841°
Mean motion
3.7972 °/min
Orbital period
94.81 mins
BSTAR
0.00044844
Loading maneuver chart data...
Computing Atmospheric mass density...
Loading historical data...
Loading historical data...
Loading historical data...
Loading historical data...
Loading historical data...
Loading historical data...
Loading historical data...

Documentation

Showing up to 5 results
|